Location: Regona
(45.2000°N, 9.8167°E)
Time: 13:38:35
(UTC+00:00)

ADEOS II - Pass Details

Date: 07 June 2020
Orbit: 800 x 800 km, 98.5° (Epoch: 15 July)

Event Time Altitude Azimuth Distance (km) Brightness Sun altitude
Rises 01:03:19 0° 22° (NNE) 3,320 7.0 -18.0°
Reaches altitude 10° 01:05:53 10° 31° (NNE) 2,385 5.8 -17.8°
Maximum altitude 01:10:40 34° 96° (E) 1,287 3.3 -17.5°
Enters shadow 01:14:40 14° 157° (SSE) 2,117 3.9 -17.1°
